Location: Chippewa Lake
(41.0698°N, 81.9010°W)
Time: 14:18:02
(UTC+00:00)

SL-8 Rocket - Pass Details

Date: 06 October 2021
Orbit: 957 x 990 km, 82.9° (Epoch: 24 October)

Event Time Altitude Azimuth Distance (km) Brightness Sun altitude
Rises 01:03:04 0° 211° (SSW) 3,681 7.2 -23.4°
Reaches altitude 10° 01:05:47 10° 220° (SW) 2,740 6.6 -23.9°
Maximum altitude 01:11:30 36° 285° (WNW) 1,523 5.5 -25.0°
Drops below altitude 10° 01:17:17 10° 351° (N) 2,760 6.7 -26.0°
Sets 01:20:03 0° 360° (N) 3,712 7.3 -26.5°
